OPS 4682 DEB, 38430

Orbit data source: Space-Track

OPS 4682 DEB, 38430 is space debris in LEO originally from a launch on Sat, 03 Apr 1965 UTC launched from the Air Force Western Test Range (AFWTR). Debris objects in space refer to the collection of defunct objects orbiting the Earth. Examples of debris include non-operational satellites, rocket bodies, and fragments generated from explosions, collisions, or faulty payload assembly.

Loading next visibility...
Identifier
38430, 1965-027EK
Orbit
LEO
Country
Flag of USUS
Related business
Manufacturer
Unknown
Mission
Spacecraft
Bus & Motor
Unknown
Mass
Unknown
Launch date (UTC)
1965-04-03 (61 years ago)
Launch vehicle
Unknown
Launch site
Air Force Western Test Range (AFWTR)
Object type
Payload
Rocket body
Debris
Shape & HBR
Unknown shape, 0.1 m
Radar Cross Section
Small (<0.1 m²)

Expand to show TLE details & history
Last TLE update: 17 hours ago

TLE from 17 hours ago
0 OPS 4682 DEB
1 38430U 65027EK  26103.99617595  .00001198  00000-0  39288-2 0  9992
2 38430  90.2694  20.9944 0049935 150.1929 210.2054 13.00097757655352
Epoch: 2026-04-13T23:54Z
TLE epoch observation values (Epoch: 2026-04-13T23:54:29.602Z)
Latitude
-0.00001°
Longitude
-179.80771°
Altitude
1,297.612 km
Speed
7.192 km/s
True Right ascension
01h 23m 58s
True Declination
0° 00' 00"
Sunlit
Object was in daylight at epoch
Visualization orbit readout
Latitude
Unknown
Longitude
Unknown
Altitude
Unknown
Speed
Unknown
Apparent Right ascension
Unknown
Apparent Declination
Unknown
Sunlit
N/A
Visualization observer readout
Local Sidereal Time
23:45:05
Azimuth
Unknown
Elevation
Unknown
Doppler factor
Unknown
Orbital elements
Apogee altitude
1,296.966 km
Perigee altitude
1,220.695 km
Semi-major axis
7,636.967 km
Eccentricity
0.00499
Inclination
90.2694°
RAAN
20.9944°
Arg. of periapsis
150.1929°
True anomaly
209.91906°
Mean anomaly
210.2054°
Eccentric anomaly
210.06208°
Mean motion
3.25208 °/min
Orbital period
110.7 mins
BSTAR
0.0039288
Loading maneuver chart data...
Computing Atmospheric mass density...
Loading historical data...
Loading historical data...
Loading historical data...
Loading historical data...
Loading historical data...
Loading historical data...
Loading historical data...

Documentation

Showing up to 5 results
|